Wind_Speed
11 11 12 12 12 12 12 12 13 13 13 13 14 14 14 14 14 14 14 14 13 14 14 14 14 14 14 14 14 14 13 13 13 14 14 14 13 13 13 13 13 12 11
13 13 13 13 13 13 13 14 14 15 15 15 15 16 16 16 15 15 15 15 15 15 15 16 16 15 15 16 16 15 15 14 14 15 15 15 15 15 15 15 14 14 13
15 15 15 15 15 15 15 16 16 17 17 17 18 18 18 17 17 17 17 17 16 17 17 17 17 18 17 17 17 17 17 17 16 16 17 16 16 16 16 16 16 15 15
17 17 17 17 17 17 17 18 18 18 19 19 20 20 19 19 19 18 18 18 19 18 19 19 19 19 20 19 20 19 19 19 19 18 18 18 17 17 17 17 17 16 16
19 19 19 19 19 19 20 20 20 20 21 21 22 21 21 21 20 20 20 20 20 20 20 20 21 21 21 22 22 21 21 20 20 20 19 19 19 19 19 19 18 18 18
21 21 21 21 21 21 22 22 22 22 22 22 22 22 22 22 22 22 22 22 23 23 23 23 23 23 23 23 24 24 23 23 22 21 21 21 21 21 20 21 20 20 20
22 22 22 23 23 23 24 23 24 25 23 23 24 24 24 24 24 24 24 25 25 25 25 25 25 26 25 25 25 26 26 25 24 23 24 23 22 22 22 22 22 22 21
24 24 24 25 25 25 25 26 26 26 25 25 25 25 26 26 26 26 27 27 27 27 28 28 28 28 28 27 27 27 27 27 26 26 26 26 25 24 24 25 24 24 23
26 26 26 27 27 27 27 27 27 28 28 28 28 27 28 28 28 29 29 29 30 30 30 30 30 30 31 30 30 29 29 29 29 29 28 28 28 28 27 27 27 26 25
28 28 28 29 29 29 29 30 30 30 30 30 30 30 30 30 30 31 32 32 32 32 32 32 32 31 32 32 33 32 32 31 31 32 31 30 30 30 30 29 29 29 28
30 30 30 30 31 31 31 31 31 31 31 31 31 32 31 32 32 33 34 34 33 33 33 34 34 34 33 34 34 35 35 34 34 34 33 33 33 32 32 31 31 30 29
32 31 32 32 32 32 32 32 32 32 32 32 32 33 32 33 33 34 35 35 34 34 35 35 35 36 36 36 36 36 36 36 37 36 35 35 34 34 33 33 32 32 31
32 32 32 33 33 33 33 33 33 33 33 33 34 34 34 34 34 35 36 36 36 35 36 36 36 37 37 37 38 37 38 38 38 38 37 37 36 36 36 36 35 34 33
33 33 33 34 34 34 33 33 33 34 34 34 34 34 35 34 34 35 35 36 37 36 36 36 37 38 38 38 39 39 38 39 39 39 39 39 39 38 38 38 38 37 36
34 33 34 34 34 34 34 34 34 34 35 35 35 35 35 35 35 35 36 36 37 38 37 37 38 39 39 39 39 39 39 39 39 40 39 40 40 40 39 39 39 38 39
35 35 34 34 34 35 34 35 35 35 35 35 36 36 36 37 37 37 37 37 37 38 38 38 38 40 40 40 40 40 40 41 40 41 41 41 41 41 41 41 40 40 40
36 35 35 35 35 35 35 35 36 36 36 35 36 37 37 38 39 39 39 39 38 38 39 39 40 40 41 41 41 41 41 42 42 42 42 42 42 42 42 42 42 42 42
36 36 36 36 36 36 35 36 36 37 37 36 36 37 38 39 40 40 40 41 40 39 39 39 39 40 42 43 43 43 43 43 44 44 44 44 44 44 44 44 44 44 44
37 37 37 37 37 37 37 37 37 37 37 37 36 37 38 39 39 40 41 41 40 41 41 41 41 42 42 43 44 45 46 46 46 46 46 46 46 46 46 46 46 46 46
37 37 37 37 38 38 37 37 37 38 38 38 38 38 38 39 40 41 42 42 42 42 43 43 43 43 43 43 44 45 46 47 47 47 48 48 48 47 47 47 47 48 47
37 37 37 37 37 38 38 37 37 38 38 38 38 39 39 39 40 41 43 43 43 43 43 44 44 44 44 44 44 45 46 46 47 48 48 48 48 49 49 49 49 49 49
36 36 36 36 36 37 38 38 38 38 39 39 39 39 40 40 41 41 42 44 45 45 45 45 45 44 45 44 45 45 45 46 46 47 48 49 49 49 50 50 50 49 50
35 36 37 37 36 37 38 38 39 39 39 39 39 39 40 41 42 43 44 44 45 46 46 46 46 45 45 45 45 45 44 44 45 44 46 48 49 49 49 50 50 49 50
36 36 37 37 37 38 38 38 39 39 39 40 40 40 41 42 43 44 44 44 45 45 46 45 45 45 45 45 45 45 44 44 44 44 45 47 48 48 48 49 50 50 51
35 36 37 37 37 38 39 38 39 40 40 40 41 42 43 43 43 44 44 44 44 45 45 45 45 46 46 45 45 45 45 45 44 44 45 46 46 46 47 48 48 49 50
35 36 37 37 38 38 39 40 40 41 41 41 42 42 43 44 44 44 44 44 44 45 46 46 46 46 45 45 45 45 45 45 45 45 45 45 46 46 47 47 48 49 50
Wind_Direction
253 255 259 262 264 263 262 264 267 269 270 272 273 273 272 271 270 268 264 262 261 260 257 254 252 252 250 250 249 250 250 251 251 250 250 250 249 249 250 249 248 247 250
257 256 259 262 264 265 265 266 268 269 270 270 271 274 273 270 269 268 264 260 258 258 258 256 255 254 253 252 251 250 249 250 251 251 251 253 254 253 251 253 252 253 257
259 259 260 262 264 266 267 268 268 269 270 271 271 272 272 270 268 267 264 261 259 258 258 256 256 256 255 255 254 251 252 253 253 254 253 254 256 256 255 255 254 256 257
259 261 262 263 264 267 268 269 269 270 270 271 271 272 270 269 268 268 265 262 261 260 260 257 257 256 255 257 257 254 253 253 255 257 256 256 257 258 258 257 256 256 256
259 262 263 263 265 267 269 269 270 271 271 270 270 270 268 268 268 268 266 263 262 261 261 260 259 258 257 258 258 257 255 254 255 257 257 258 258 259 259 260 259 257 257
260 261 263 263 265 266 268 269 270 271 270 267 267 268 268 268 267 267 267 266 264 263 261 260 259 259 259 259 260 260 258 256 256 257 257 259 259 260 260 260 260 260 259
260 261 263 265 266 267 268 269 269 270 269 266 265 266 266 267 267 266 267 265 265 264 262 260 260 260 260 260 261 261 261 258 257 257 258 259 260 260 260 260 261 261 261
263 263 264 265 266 268 269 270 270 269 267 265 266 266 266 266 266 266 266 266 265 263 262 261 260 260 260 260 261 261 261 260 258 258 258 259 259 260 261 261 261 260 260
264 264 265 267 268 268 269 270 271 271 269 267 266 266 266 266 266 266 265 266 265 264 263 262 261 261 260 260 261 261 261 261 260 260 259 259 259 260 261 261 261 261 261
264 264 265 267 268 269 269 269 269 270 270 267 266 266 266 266 266 266 266 267 267 265 264 263 262 261 261 260 261 261 261 262 262 262 260 259 259 259 259 260 260 261 261
264 264 266 268 269 270 270 270 270 270 270 269 269 268 268 267 267 267 267 268 268 267 265 264 264 262 262 261 261 262 262 262 262 263 262 260 259 258 258 259 259 260 261
265 265 266 267 268 269 270 271 271 271 270 270 271 269 268 268 268 268 268 268 268 267 266 266 265 265 264 263 263 262 261 261 262 262 262 261 259 258 257 257 258 258 258
264 265 266 266 268 269 270 271 271 271 271 271 271 269 268 269 269 270 270 269 269 268 267 266 266 266 265 264 263 262 262 262 262 262 261 261 259 257 256 256 257 257 257
265 265 266 267 267 268 270 271 271 271 271 271 271 269 269 270 270 271 271 271 270 269 268 267 266 266 266 264 263 262 262 262 261 261 260 259 258 257 256 256 257 257 257
266 267 268 268 267 268 269 270 271 271 271 271 272 270 269 269 270 271 271 271 271 270 269 268 266 266 265 265 263 262 262 262 261 261 260 259 258 257 256 256 257 257 258
266 267 266 267 268 268 269 269 270 271 271 271 270 270 269 270 270 271 271 271 271 270 270 269 268 266 264 264 263 263 263 261 260 260 260 260 259 258 256 256 256 257 258
267 267 267 268 268 268 269 269 270 271 271 271 271 271 270 271 270 270 270 272 271 271 270 268 267 267 264 263 263 263 263 262 261 260 260 260 259 258 257 256 256 256 257
267 267 268 269 268 268 269 270 270 271 271 272 272 272 272 272 271 270 270 271 271 271 270 269 268 268 266 264 263 263 263 263 262 261 261 260 260 259 258 257 256 256 257
268 268 268 268 268 268 269 269 270 271 271 271 272 272 273 273 272 271 270 270 270 270 270 269 269 268 268 265 263 263 262 263 262 261 260 260 260 259 258 257 256 257 258
268 268 268 268 269 269 269 269 270 271 271 271 272 273 274 274 273 272 271 271 271 270 270 270 270 270 269 268 265 264 262 262 262 262 260 260 260 259 258 258 257 257 257
269 270 270 270 270 269 268 269 269 270 271 271 272 273 274 274 274 272 271 270 270 270 269 269 269 270 270 269 267 265 264 263 262 262 262 261 260 259 259 259 259 257 256
269 269 269 270 270 269 268 268 268 270 271 271 272 274 275 275 275 274 273 272 271 270 270 270 269 270 269 269 268 267 266 264 263 263 263 262 261 261 260 260 259 258 256
269 269 270 270 271 270 268 267 268 269 271 272 274 275 276 276 275 275 274 274 272 271 270 270 269 269 269 269 269 268 267 265 264 264 264 263 262 262 261 260 259 257 256
270 271 271 271 271 271 270 269 269 269 271 272 274 275 276 277 277 276 275 274 274 272 269 268 268 268 268 269 269 268 268 268 266 265 264 264 263 262 260 259 258 257 256
271 271 272 271 271 272 271 270 270 271 272 272 273 275 276 277 277 277 276 275 273 272 270 268 268 267 268 268 269 269 268 268 268 266 265 264 263 261 260 259 259 257 257
271 270 271 271 272 273 272 271 271 272 273 273 274 276 276 277 278 277 276 275 273 272 271 269 269 268 267 267 268 268 268 268 268 268 265 263 263 262 261 260 259 258 258
Height
5845 5845 5845 5845 5845 5845 5845 5845 5845 5845 5845 5845 5845 5845 5845 5845 5845 5845 5845 5845 5845 5845 5845 5846 5846 5846 5846 5847 5847 5847 5847 5847 5847 5847 5847 5847 5847 5847 5847 5847 5847 5847 5847
5842 5843 5843 5843 5843 5843 5843 5843 5843 5843 5843 5843 5842 5843 5843 5843 5843 5842 5842 5842 5843 5843 5843 5843 5843 5844 5844 5844 5844 5845 5845 5845 5845 5845 5845 5845 5845 5845 5845 5845 5845 5845 5845
5839 5840 5840 5840 5840 5840 5840 5840 5840 5840 5840 5840 5839 5840 5840 5840 5840 5839 5839 5839 5840 5840 5840 5840 5840 5841 5841 5842 5842 5842 5842 5842 5842 5842 5842 5843 5843 5842 5842 5842 5843 5842 5842
5836 5836 5836 5836 5836 5837 5837 5837 5836 5836 5836 5836 5836 5836 5836 5836 5836 5836 5835 5836 5836 5837 5837 5837 5837 5838 5838 5838 5838 5839 5839 5839 5839 5839 5839 5839 5840 5840 5840 5840 5840 5840 5840
5832 5832 5832 5833 5833 5833 5833 5833 5833 5832 5832 5831 5832 5832 5832 5832 5832 5832 5832 5832 5832 5833 5833 5834 5834 5834 5834 5834 5835 5835 5835 5836 5836 5835 5836 5836 5836 5836 5836 5837 5837 5837 5837
5828 5828 5828 5828 5829 5829 5829 5829 5828 5827 5826 5826 5827 5828 5828 5828 5828 5828 5828 5828 5829 5829 5829 5829 5830 5830 5830 5830 5830 5831 5831 5832 5832 5831 5832 5832 5832 5832 5833 5833 5833 5833 5833
5823 5823 5824 5824 5824 5824 5824 5824 5824 5823 5821 5821 5823 5823 5823 5824 5824 5824 5824 5824 5824 5824 5825 5825 5825 5825 5826 5826 5826 5826 5826 5827 5827 5827 5827 5828 5828 5828 5828 5829 5829 5829 5829
5818 5818 5819 5819 5819 5819 5819 5819 5819 5818 5818 5817 5818 5818 5818 5818 5818 5818 5818 5818 5818 5819 5819 5819 5820 5820 5820 5820 5820 5821 5821 5821 5822 5822 5822 5823 5823 5823 5824 5824 5824 5825 5825
5813 5813 5813 5813 5813 5813 5813 5813 5813 5813 5813 5812 5812 5812 5812 5812 5812 5812 5812 5812 5812 5812 5813 5813 5814 5814 5814 5814 5814 5815 5815 5816 5816 5816 5817 5818 5818 5818 5818 5819 5819 5819 5819
5807 5807 5807 5807 5807 5807 5807 5807 5807 5807 5806 5806 5806 5806 5806 5806 5806 5806 5805 5805 5805 5805 5806 5806 5807 5807 5807 5808 5808 5808 5809 5809 5810 5810 5811 5811 5812 5812 5812 5813 5813 5813 5814
5801 5800 5800 5800 5800 5800 5800 5800 5800 5800 5799 5799 5799 5799 5799 5799 5798 5799 5798 5798 5798 5798 5798 5799 5799 5800 5800 5800 5801 5801 5802 5802 5803 5803 5804 5804 5805 5805 5805 5806 5807 5807 5807
5794 5794 5794 5793 5793 5793 5793 5793 5793 5793 5792 5792 5792 5791 5791 5791 5791 5791 5790 5790 5790 5790 5790 5791 5791 5791 5792 5792 5793 5793 5794 5794 5795 5795 5796 5796 5797 5797 5798 5799 5799 5800 5800
5786 5786 5786 5787 5786 5786 5786 5786 5786 5785 5785 5785 5784 5784 5783 5783 5783 5782 5782 5782 5781 5781 5781 5782 5782 5782 5783 5783 5784 5784 5785 5785 5786 5786 5787 5788 5788 5789 5790 5791 5791 5792 5793
5779 5779 5779 5779 5779 5779 5779 5779 5778 5778 5777 5777 5776 5775 5775 5775 5774 5774 5773 5773 5773 5772 5772 5772 5773 5773 5773 5774 5774 5775 5775 5776 5777 5777 5778 5779 5780 5780 5781 5782 5783 5784 5785
5772 5771 5771 5771 5771 5771 5771 5771 5771 5770 5770 5769 5768 5767 5767 5766 5766 5765 5764 5764 5763 5763 5763 5763 5763 5763 5764 5764 5764 5765 5766 5766 5767 5767 5768 5769 5770 5771 5772 5773 5774 5775 5776
5763 5763 5763 5763 5763 5763 5763 5763 5762 5762 5761 5761 5760 5759 5758 5758 5757 5756 5756 5755 5754 5753 5753 5753 5753 5753 5753 5754 5754 5755 5755 5756 5757 5757 5758 5759 5760 5761 5762 5763 5765 5766 5767
5755 5755 5755 5755 5755 5755 5755 5754 5754 5753 5753 5752 5751 5750 5749 5749 5748 5747 5746 5745 5744 5744 5744 5743 5743 5742 5743 5743 5744 5745 5745 5746 5746 5747 5748 5748 5749 5750 5752 5753 5754 5755 5756
5746 5746 5746 5746 5746 5746 5745 5745 5744 5744 5743 5743 5742 5741 5740 5739 5738 5737 5736 5735 5734 5734 5733 5733 5732 5732 5732 5732 5733 5734 5734 5735 5735 5736 5737 5737 5738 5739 5740 5742 5743 5744 5745
5737 5737 5737 5736 5736 5736 5736 5735 5735 5734 5733 5733 5732 5731 5730 5729 5728 5727 5726 5725 5724 5723 5723 5723 5722 5722 5721 5721 5722 5722 5722 5723 5723 5724 5725 5726 5727 5728 5729 5730 5731 5733 5734
5727 5727 5727 5726 5726 5726 5726 5725 5725 5724 5723 5723 5722 5721 5720 5718 5717 5716 5715 5715 5714 5713 5712 5712 5711 5710 5710 5710 5710 5710 5710 5711 5711 5712 5713 5714 5715 5715 5716 5718 5719 5721 5722
5718 5718 5717 5717 5716 5716 5716 5716 5715 5714 5713 5712 5711 5710 5709 5708 5706 5705 5704 5704 5702 5701 5701 5700 5699 5699 5698 5698 5698 5698 5698 5698 5698 5699 5699 5700 5701 5702 5703 5704 5706 5707 5709
5709 5708 5708 5707 5706 5706 5705 5705 5705 5704 5703 5702 5701 5700 5698 5697 5695 5694 5693 5692 5691 5689 5689 5688 5687 5687 5686 5685 5685 5685 5686 5687 5686 5686 5686 5687 5688 5689 5690 5691 5692 5693 5695
5700 5699 5698 5697 5697 5696 5695 5695 5694 5694 5693 5692 5690 5689 5687 5685 5684 5682 5681 5679 5678 5677 5676 5676 5675 5674 5674 5673 5672 5672 5672 5673 5674 5674 5673 5673 5674 5675 5676 5677 5678 5679 5681
5690 5689 5688 5687 5686 5685 5684 5684 5684 5683 5682 5681 5680 5678 5676 5674 5672 5670 5669 5667 5665 5664 5663 5663 5662 5662 5662 5661 5660 5660 5660 5660 5661 5662 5661 5660 5660 5661 5662 5663 5664 5665 5667
5680 5680 5679 5677 5676 5675 5674 5673 5673 5672 5671 5670 5668 5666 5664 5662 5660 5658 5656 5655 5653 5652 5651 5650 5650 5649 5649 5649 5648 5648 5648 5647 5647 5648 5649 5648 5647 5647 5648 5649 5650 5652 5654
5670 5670 5669 5667 5666 5665 5664 5663 5662 5661 5659 5658 5656 5654 5652 5650 5648 5646 5644 5642 5641 5639 5638 5638 5637 5636 5636 5636 5636 5636 5635 5635 5635 5635 5635 5635 5635 5635 5635 5636 5637 5639 5641